| time (UTC) | temp F | wind direction | speed MPH | gust MPH | rain 1hr in | rain 24hr in | rain mn in | humidity % | barometer mb |
| 20260507073021 | 58 | 191 | 5.0 | 12.0 | 0.00 | 0.01 | 0.00 | 47 | 1029.3 |
| 20260507072120 | 58 | 209 | 8.0 | 14.0 | 0.00 | 0.01 | 0.00 | 46 | 1029.3 |
| 20260507071221 | 58 | 207 | 9.0 | 16.0 | 0.00 | 0.01 | 0.00 | 46 | 1029.3 |
| 20260507070322 | 59 | 227 | 7.0 | 17.0 | 0.00 | 0.01 | 0.00 | 44 | 1029.3 |
| 20260507065421 | 59 | 214 | 7.0 | 14.0 | 0.00 | 0.01 | 0.00 | 44 | 1029.2 |
| 20260507064521 | 59 | 219 | 8.0 | 15.0 | 0.00 | 0.01 | 0.00 | 44 | 1029.2 |
| 20260507063621 | 60 | 211 | 7.0 | 13.0 | 0.00 | 0.01 | 0.00 | 42 | 1029.2 |
| 20260507062721 | 59 | 222 | 7.0 | 13.0 | 0.00 | 0.01 | 0.00 | 44 | 1029.1 |
| 20260507061821 | 59 | 221 | 6.0 | 13.0 | 0.00 | 0.01 | 0.00 | 45 | 1029.1 |
| 20260507060021 | 59 | 198 | 5.0 | 11.0 | 0.00 | 0.01 | 0.00 | 45 | 1029.2 |
| 20260507053321 | 60 | 171 | 4.0 | 10.0 | 0.00 | 0.01 | 0.00 | 47 | 1029.2 |
| 20260507045721 | 60 | 223 | 8.0 | 16.0 | 0.00 | 0.01 | 0.00 | 43 | 1029.2 |
| 20260507044821 | 62 | 199 | 7.0 | 16.0 | 0.00 | 0.01 | 0.00 | 42 | 1029.3 |
| 20260507042121 | 62 | 227 | 9.0 | 14.0 | 0.00 | 0.01 | 0.00 | 40 | 1029.3 |
| 20260507041221 | 61 | 221 | 9.0 | 17.0 | 0.00 | 0.01 | 0.00 | 40 | 1029.3 |
| 20260507040320 | 63 | 237 | 8.0 | 15.0 | 0.00 | 0.01 | 0.00 | 37 | 1029.4 |
| 20260507035420 | 64 | 211 | 5.0 | 11.0 | 0.00 | 0.01 | 0.00 | 39 | 1029.4 |
| 20260507032720 | 61 | 167 | 6.0 | 12.0 | 0.00 | 0.01 | 0.00 | 41 | 1029.5 |
| 20260507031821 | 64 | 165 | 6.0 | 12.0 | 0.00 | 0.01 | 0.00 | 45 | 1029.6 |
| 20260507030921 | 61 | 161 | 7.0 | 13.0 | 0.00 | 0.01 | 0.00 | 41 | 1029.6 |
| 20260507030021 | 61 | 179 | 6.0 | 14.0 | 0.00 | 0.02 | 0.00 | 42 | 1029.7 |
| 20260507025120 | 61 | 184 | 5.0 | 14.0 | 0.00 | 0.02 | 0.00 | 43 | 1029.7 |
| 20260507024221 | 63 | 223 | 7.0 | 15.0 | 0.00 | 0.02 | 0.00 | 40 | 1029.8 |
| 20260507022421 | 66 | 209 | 6.0 | 11.0 | 0.00 | 0.02 | 0.00 | 40 | 1030.0 |
| 20260507021521 | 63 | 189 | 6.0 | 14.0 | 0.00 | 0.02 | 0.00 | 43 | 1030.0 |
| 20260507015721 | 59 | 202 | 6.0 | 12.0 | 0.00 | 0.02 | 0.00 | 44 | 1030.2 |
| 20260507013921 | 60 | 217 | 9.0 | 19.0 | 0.00 | 0.02 | 0.00 | 41 | 1030.2 |
| 20260507013020 | 63 | 200 | 6.0 | 19.0 | 0.00 | 0.02 | 0.00 | 38 | 1030.1 |
| 20260507010321 | 65 | 165 | 8.0 | 15.0 | 0.00 | 0.02 | 0.00 | 37 | 1029.9 |
| 20260507005421 | 65 | 170 | 7.0 | 15.0 | 0.00 | 0.02 | 0.00 | 36 | 1029.9 |
| 20260507004521 | 65 | 162 | 7.0 | 16.0 | 0.00 | 0.02 | 0.00 | 40 | 1029.8 |
| 20260507002720 | 63 | 166 | 7.0 | 18.0 | 0.00 | 0.02 | 0.00 | 42 | 1029.8 |
| 20260507001820 | 63 | 191 | 7.0 | 13.0 | 0.00 | 0.02 | 0.00 | 43 | 1029.8 |
| 20260507000020 | 62 | 191 | 5.0 | 11.0 | 0.00 | 0.02 | 0.00 | 45 | 1029.9 |
| 20260506235119 | 62 | 192 | 4.0 | 8.0 | 0.00 | 0.02 | 0.00 | 47 | 1029.9 |
| 20260506234220 | 60 | 169 | 5.0 | 10.0 | 0.00 | 0.02 | 0.00 | 49 | 1029.8 |
| 20260506233320 | 58 | 166 | 3.0 | 9.0 | 0.00 | 0.02 | 0.00 | 52 | 1029.7 |
| 20260506232420 | 56 | 169 | 4.0 | 8.0 | 0.00 | 0.02 | 0.00 | 56 | 1029.7 |
| 20260506231520 | 54 | 166 | 3.0 | 8.0 | 0.00 | 0.02 | 0.00 | 59 | 1029.6 |
| 20260506230620 | 53 | 163 | 4.0 | 8.0 | 0.00 | 0.02 | 0.00 | 57 | 1029.5 |
| 20260506225720 | 53 | 167 | 3.0 | 7.0 | 0.00 | 0.02 | 0.00 | 57 | 1029.5 |
| 20260506224820 | 53 | 164 | 2.0 | 6.0 | 0.00 | 0.02 | 0.00 | 58 | 1029.3 |
| 20260506223020 | 49 | 177 | 1.0 | 3.0 | 0.00 | 0.02 | 0.00 | 56 | 1029.1 |
| 20260506222119 | 49 | 177 | 1.0 | 3.0 | 0.00 | 0.02 | 0.00 | 56 | 1028.9 |
| 20260506221220 | 49 | 162 | 1.0 | 3.0 | 0.00 | 0.02 | 0.00 | 56 | 1028.8 |
| 20260506220320 | 49 | 160 | 1.0 | 2.0 | 0.00 | 0.02 | 0.00 | 55 | 1028.7 |
| 20260506215421 | 49 | 160 | 1.0 | 4.0 | 0.00 | 0.02 | 0.00 | 55 | 1028.6 |
| 20260506214520 | 49 | 170 | 1.0 | 4.0 | 0.00 | 0.02 | 0.00 | 55 | 1028.5 |
| 20260506213619 | 50 | 175 | 1.0 | 2.0 | 0.00 | 0.02 | 0.00 | 55 | 1028.5 |
| 20260506212720 | 50 | 175 | 1.0 | 2.0 | 0.00 | 0.02 | 0.00 | 55 | 1028.3 |
| 20260506210020 | 51 | 0 | 0.0 | 0.0 | 0.00 | 0.02 | 0.00 | 55 | 1027.9 |
| 20260506205120 | 51 | 175 | 1.0 | 2.0 | 0.00 | 0.02 | 0.00 | 55 | 1027.8 |
| 20260506203320 | 51 | 161 | 2.0 | 6.0 | 0.00 | 0.02 | 0.00 | 55 | 1027.7 |
| 20260506202420 | 51 | 156 | 3.0 | 6.0 | 0.00 | 0.02 | 0.00 | 55 | 1027.5 |
| 20260506201519 | 52 | 166 | 4.0 | 8.0 | 0.00 | 0.02 | 0.00 | 55 | 1027.5 |
| 20260506200619 | 52 | 169 | 3.0 | 8.0 | 0.00 | 0.02 | 0.00 | 55 | 1027.5 |
| 20260506194820 | 52 | 172 | 4.0 | 8.0 | 0.00 | 0.02 | 0.00 | 54 | 1027.4 |
| 20260506193019 | 52 | 155 | 2.0 | 6.0 | 0.00 | 0.02 | 0.00 | 54 | 1027.2 |
| 20260506192120 | 52 | 163 | 2.0 | 6.0 | 0.00 | 0.02 | 0.00 | 53 | 1027.2 |
| 20260506191220 | 52 | 175 | 3.0 | 6.0 | 0.00 | 0.02 | 0.00 | 54 | 1027.1 |
| 20260506185420 | 52 | 163 | 3.0 | 8.0 | 0.00 | 0.02 | 0.00 | 53 | 1026.7 |
| 20260506183620 | 52 | 172 | 7.0 | 13.0 | 0.00 | 0.02 | 0.00 | 54 | 1026.6 |
| 20260506182719 | 52 | 166 | 6.0 | 16.0 | 0.00 | 0.02 | 0.00 | 54 | 1026.5 |
| 20260506181819 | 52 | 156 | 4.0 | 10.0 | 0.00 | 0.02 | 0.00 | 53 | 1026.5 |
| 20260506180919 | 52 | 161 | 3.0 | 7.0 | 0.00 | 0.02 | 0.00 | 53 | 1026.5 |
| 20260506180019 | 52 | 160 | 2.0 | 6.0 | 0.00 | 0.02 | 0.00 | 53 | 1026.5 |
| 20260506175119 | 52 | 164 | 3.0 | 6.0 | 0.00 | 0.02 | 0.00 | 53 | 1026.6 |
| 20260506174220 | 52 | 156 | 2.0 | 5.0 | 0.00 | 0.02 | 0.00 | 53 | 1026.6 |
| 20260506173320 | 53 | 145 | 3.0 | 9.0 | 0.00 | 0.02 | 0.00 | 53 | 1026.6 |
| 20260506170619 | 53 | 157 | 2.0 | 4.0 | 0.00 | 0.02 | 0.00 | 52 | 1026.6 |
| 20260506165719 | 53 | 171 | 1.0 | 5.0 | 0.00 | 0.02 | 0.00 | 52 | 1026.5 |
| 20260506163919 | 53 | 170 | 2.0 | 6.0 | 0.00 | 0.02 | 0.00 | 51 | 1026.7 |
| 20260506163019 | 53 | 192 | 4.0 | 7.0 | 0.00 | 0.02 | 0.00 | 51 | 1026.6 |
| 20260506162119 | 54 | 183 | 5.0 | 11.0 | 0.00 | 0.02 | 0.00 | 51 | 1026.6 |
| 20260506161219 | 54 | 187 | 5.0 | 13.0 | 0.00 | 0.02 | 0.00 | 50 | 1026.5 |
| 20260506160319 | 54 | 192 | 5.0 | 13.0 | 0.00 | 0.02 | 0.00 | 50 | 1026.4 |
| 20260506154519 | 54 | 177 | 6.0 | 14.0 | 0.00 | 0.02 | 0.00 | 50 | 1026.5 |
| 20260506153619 | 54 | 176 | 7.0 | 15.0 | 0.00 | 0.02 | 0.00 | 50 | 1026.4 |
| 20260506152719 | 54 | 169 | 6.0 | 15.0 | 0.00 | 0.02 | 0.00 | 50 | 1026.4 |
| 20260506151820 | 54 | 178 | 6.0 | 17.0 | 0.00 | 0.02 | 0.00 | 51 | 1026.3 |
| 20260506150919 | 54 | 187 | 5.0 | 17.0 | 0.00 | 0.02 | 0.00 | 51 | 1026.3 |
| 20260506150019 | 54 | 186 | 5.0 | 13.0 | 0.00 | 0.02 | 0.00 | 51 | 1026.2 |
| 20260506145119 | 54 | 184 | 5.0 | 11.0 | 0.00 | 0.02 | 0.00 | 52 | 1026.2 |
| 20260506144219 | 54 | 175 | 7.0 | 17.0 | 0.00 | 0.02 | 0.00 | 52 | 1026.3 |
| 20260506143319 | 54 | 186 | 7.0 | 17.0 | 0.00 | 0.02 | 0.00 | 52 | 1026.2 |
| 20260506141519 | 54 | 185 | 7.0 | 17.0 | 0.00 | 0.02 | 0.02 | 52 | 1026.2 |
| 20260506140619 | 54 | 169 | 7.0 | 16.0 | 0.00 | 0.02 | 0.02 | 52 | 1026.1 |
| 20260506135719 | 54 | 174 | 6.0 | 14.0 | 0.01 | 0.02 | 0.02 | 53 | 1026.1 |
| 20260506134819 | 54 | 173 | 5.0 | 10.0 | 0.01 | 0.02 | 0.02 | 53 | 1026.1 |
| 20260506133919 | 54 | 179 | 6.0 | 14.0 | 0.01 | 0.02 | 0.02 | 53 | 1026.0 |
| 20260506132118 | 54 | 172 | 6.0 | 12.0 | 0.01 | 0.02 | 0.02 | 54 | 1025.8 |
| 20260506131218 | 55 | 172 | 7.0 | 15.0 | 0.01 | 0.02 | 0.02 | 55 | 1025.7 |
| 20260506130319 | 55 | 168 | 6.0 | 15.0 | 0.01 | 0.02 | 0.02 | 55 | 1025.7 |
| 20260506125419 | 55 | 181 | 6.0 | 12.0 | 0.00 | 0.01 | 0.01 | 56 | 1025.6 |
| 20260506124519 | 55 | 186 | 6.0 | 12.0 | 0.00 | 0.01 | 0.01 | 56 | 1025.6 |
| 20260506123619 | 55 | 177 | 5.0 | 11.0 | 0.00 | 0.01 | 0.01 | 57 | 1025.4 |
| 20260506122719 | 55 | 173 | 7.0 | 15.0 | 0.00 | 0.01 | 0.01 | 58 | 1025.4 |
| 20260506121819 | 55 | 186 | 9.0 | 17.0 | 0.00 | 0.01 | 0.01 | 58 | 1025.4 |
| 20260506120919 | 55 | 183 | 7.0 | 17.0 | 0.00 | 0.01 | 0.01 | 59 | 1025.2 |
| 20260506120018 | 55 | 175 | 6.0 | 12.0 | 0.00 | 0.01 | 0.01 | 60 | 1025.2 |
| 20260506115118 | 56 | 171 | 6.0 | 12.0 | 0.00 | 0.01 | 0.01 | 61 | 1025.1 |
| 20260506114218 | 56 | 169 | 5.0 | 12.0 | 0.00 | 0.01 | 0.01 | 61 | 1025.0 |
| 20260506113319 | 56 | 175 | 6.0 | 15.0 | 0.00 | 0.01 | 0.01 | 61 | 1025.0 |
| 20260506112418 | 56 | 177 | 8.0 | 15.0 | 0.00 | 0.01 | 0.01 | 62 | 1024.8 |
| 20260506111519 | 56 | 183 | 6.0 | 12.0 | 0.00 | 0.01 | 0.01 | 62 | 1024.8 |
| 20260506110618 | 56 | 186 | 7.0 | 14.0 | 0.00 | 0.01 | 0.01 | 62 | 1024.7 |
| 20260506105718 | 56 | 192 | 6.0 | 12.0 | 0.00 | 0.01 | 0.01 | 62 | 1024.6 |
| 20260506104819 | 56 | 189 | 7.0 | 14.0 | 0.00 | 0.01 | 0.01 | 62 | 1024.5 |
| 20260506103018 | 57 | 192 | 6.0 | 12.0 | 0.00 | 0.01 | 0.01 | 62 | 1024.2 |
| 20260506102118 | 57 | 191 | 6.0 | 13.0 | 0.00 | 0.01 | 0.01 | 62 | 1024.2 |
| 20260506094519 | 58 | 182 | 8.0 | 15.0 | 0.00 | 0.01 | 0.01 | 63 | 1023.7 |
| 20260506093618 | 58 | 186 | 6.0 | 18.0 | 0.00 | 0.01 | 0.01 | 63 | 1023.6 |
| 20260506091818 | 59 | 186 | 8.0 | 17.0 | 0.00 | 0.01 | 0.01 | 63 | 1023.3 |
| 20260506090017 | 59 | 192 | 6.0 | 16.0 | 0.00 | 0.01 | 0.01 | 63 | 1022.8 |
| 20260506085118 | 59 | 212 | 8.0 | 16.0 | 0.00 | 0.01 | 0.01 | 63 | 1022.8 |
| 20260506084218 | 59 | 212 | 9.0 | 17.0 | 0.00 | 0.01 | 0.01 | 62 | 1022.6 |
| 20260506083318 | 59 | 205 | 9.0 | 17.0 | 0.00 | 0.01 | 0.01 | 62 | 1022.4 |
| 20260506082418 | 60 | 201 | 7.0 | 14.0 | 0.00 | 0.01 | 0.01 | 62 | 1022.3 |
| 20260506081517 | 60 | 228 | 7.0 | 13.0 | 0.00 | 0.01 | 0.01 | 60 | 1022.2 |
| 20260506080618 | 61 | 237 | 8.0 | 16.0 | 0.00 | 0.01 | 0.01 | 59 | 1022.1 |